Location: Tamazert
(32.6352°N, 5.2072°W)
Time: 16:37:47
(UTC+00:00)

Courier 1B Rocket - Pass Details

Date: 03 October 2022
Orbit: 920 x 1202 km, 28.3° (Epoch: 01 December)

Event Time Altitude Azimuth Distance (km) Brightness Sun altitude
Rises 19:17:44 0° 248° (WSW) 3,789 9.2 -16.5°
Reaches altitude 10° 19:20:35 10° 243° (WSW) 2,793 8.2 -17.1°
Maximum altitude 19:27:03 50° 170° (S) 1,207 5.3 -18.5°
Enters shadow 19:29:50 31° 113° (ESE) 1,602 5.6 -19.1°
